Regional Weather Roundup
Issued by NWS

Home | Current Version | Previous Version | Graphics & Text | Print | Product List | Glossary On
Versions: 1 2 3 4 5 6 7 8 9 10 11 12 13 14 15 16 17 18 19 20 21 22 23 24 25 26 27
000
ASUS45 KSLC 250810
RWRUT

UTAH REGIONAL WEATHER ROUNDUP
NATIONAL WEATHER SERVICE SALT LAKE CITY UT
200 AM MDT SUN SEP 25 2016

UTZ001>011-023>025-250900-

NORTHERN UTAH

CITY           SKY/WX    TMP DP  RH WIND       PRES   REMARKS
BRIGHAM CITY     N/A     47  43  86 CALM      30.42R
HILL AFB       CLEAR     46  39  75 E13       30.41S
LOGAN          CLEAR     44  42  93 E3        30.42R
OGDEN          CLEAR     47  40  76 S8        30.40S
PROVO AIRPORT  CLEAR     44  39  82 CALM      30.42S
SALT LAKE CITY CLEAR     48  43  82 SE6       30.40S
VERNAL         CLEAR     42  35  76 W5        30.42R
WENDOVER       CLEAR     50  39  66 CALM      30.41S
HEBER CITY     CLEAR     36  34  93 CALM      30.44S
WEST JORDAN    CLEAR     45  41  87 SW3       30.41F

$$

UTZ012>022-026-027-250900-

SOUTHERN/CENTRAL UTAH

CITY           SKY/WX    TMP DP  RH WIND       PRES   REMARKS
BLANDING       CLEAR     49  38  67 N8        30.41R
BRYCE CANYON   CLEAR     39  29  67 N8        30.44R WCI  33
CEDAR CITY     CLEAR     45  34  65 N9        30.37R
DELTA          CLEAR     45  39  81 NE6       30.41S
MILFORD        CLEAR     50  37  61 NW10      30.39R
MOAB/CYNLANDS  CLEAR     54  41  61 CALM      30.35R
PRICE          CLEAR     43  32  65 N6        30.41R
ST GEORGE      SUNNY     70  32  24 NE18G32   30.24R

$$

REGIONAL REPORTS     COLORADO/ARIZONA

CITY           SKY/WX    TMP DP  RH WIND       PRES   REMARKS
CRAIG, CO      CLOUDY    37  34  89 CALM      30.45R
GRAND JUNCTION CLEAR     48  41  76 W3        30.38R
RIFLE          CLOUDY    48  47  96 CALM      30.42R
MONTROSE       CLOUDY    48  41  76 CALM      30.41R
CORTEZ         CLEAR     40  35  83 NE6       30.30F
PAGE, AZ       CLEAR     62  35  36 N10       30.29R
GRAND CANYON   CLEAR     47  35  63 VRB5      30.34F
KINGMAN        CLEAR     57  32  38 E7        30.17S
FLAGSTAFF      PTCLDY    50  31  48 NE14G23   30.33R

$$

REGIONAL REPORTS    NEVADA/IDAHO/WYOMING

CITY           SKY/WX    TMP DP  RH WIND       PRES   REMARKS
LAS VEGAS, NV  CLEAR     73  29  19 NE5       30.16R
ELY            CLEAR     32  29  88 S6        30.46R WCI  26
ELKO           CLEAR     42  34  73 CALM      30.44S
POCATELLO, ID  CLEAR     46  33  60 S5        30.42S
BURLEY         CLEAR     43  35  73 SW7       30.39S
EVANSTON, WY   CLOUDY    37  30  75 S7        30.47S WCI  32
ROCK SPRINGS   CLOUDY    39  34  82 W3        30.44S

$$




USA.gov is the U.S. government's official web portal to all federal, state and local government web resources and services.